[ ตารางข้อมูล ] [ Min-Max ] [ วันนี้4 ] [ วันนี้2 ] [ เทียบ3วัน A ] [ เทียบ4วัน B ]   

วันนี้2   [ ◀ ช่วงเก่ากว่า ] [ ช่วงที่ 308 ] [ ช่วงใหม่กว่า ▶ ] [ ล่าสุด ]    [ 3 ชั่วโมง ] [ 6 ชั่วโมง ] [ 12 ชั่วโมง ] [ 24 ชั่วโมง ]   วันนี้2

อุณภูมิตู้ Knockdown4529  ราย 3 ชั่วโมง  ที่วัดได้ ในช่วงวันเวลา 31/03/2026 (20:04) ถึง 31/03/2026 (23:04) 
ความชื้นในตู้ Knockdown4529  ราย 3 ชั่วโมง  ที่วัดได้ ในช่วงวันเวลา 31/03/2026 (20:04) ถึง 31/03/2026 (23:04) 

 
DS18B20SHTC3 
IDDate d/m/Y & Timedata1
สูง
data2
ต่ำ
data3
นอก
temp
pcb
hum
pcb
Time
 7634  31/03/2026 23:00:52  29.7  29.7  28.5  29.6  72.8  23:00 
 7633  31/03/2026 22:56:11  29.8  29.7  28.7  29.6  72.9  22:56 
 7632  31/03/2026 22:51:29  29.8  29.8  28.6  29.6  72.8  22:51 
 7631  31/03/2026 22:46:48  29.8  29.8  28.6  29.5  72.8  22:46 
 7630  31/03/2026 22:42:06  29.8  29.8  28.6  29.7  72.8  22:42 
 7629  31/03/2026 22:37:24  29.8  29.8  28.6  29.6  72.7  22:37 
 7628  31/03/2026 22:32:42  29.8  29.8  28.7  29.6  72.7  22:32 
 7627  31/03/2026 22:28:00  29.8  29.8  28.7  29.6  72.8  22:28 
 7626  31/03/2026 22:23:18  29.8  29.8  28.7  29.8  72.9  22:23 
 7625  31/03/2026 22:18:36  29.8  29.8  28.7  29.6  72.9  22:18 
 7624  31/03/2026 22:13:54  29.8  29.9  28.7  29.6  72.8  22:13 
 7623  31/03/2026 22:09:13  29.8  29.9  28.8  29.7  72.8  22:09 
 7622  31/03/2026 22:04:32  29.9  29.9  28.7  29.7  72.8  22:04 
 7621  31/03/2026 21:59:48  29.9  29.9  28.7  29.7  72.9  21:59 
 7620  31/03/2026 21:55:05  29.9  29.9  28.7  29.8  72.9  21:55 
 7619  31/03/2026 21:50:24  29.9  29.9  28.7  29.9  72.8  21:50 
 7618  31/03/2026 21:45:42  29.9  29.9  28.9  29.9  72.8  21:45 
 7617  31/03/2026 21:41:00  29.9  30.0  28.8  29.7  72.7  21:41 
 7616  31/03/2026 21:36:18  29.9  30.0  28.7  29.9  72.7  21:36 
 7615  31/03/2026 21:31:36  29.9  30.0  28.8  29.8  72.7  21:31 
 7614  31/03/2026 21:26:55  30.0  30.1  28.8  30.0  72.7  21:26 
 7613  31/03/2026 21:22:13  30.0  30.1  28.9  30.1  72.7  21:22 
 7612  31/03/2026 21:17:32  30.1  30.1  28.9  29.9  72.7  21:17 
 7611  31/03/2026 21:12:51  30.1  30.1  28.9  30.1  72.8  21:12 

Data every 5 minute.


ใช้เวลาประมวลผล 0.00182 วินาที